• In Germany
  • List of Countries
  • For 7 days
  • Water Temperature
  • Satellite Maps
  • Weather Map
  • Weather Widgets
  • user-avatar
    Login

    Hourly Weather Satif

    Today, 17 January, Wednesday

    Time Temperature Precipitation Wind Pressure Humidity
    00:00 +5°C° 0 mm 3 mps 675 mmHg 62%
    01:00 +4°C° 0 mm 3 mps 675 mmHg 63%
    02:00 +4°C° 0 mm 3 mps 674 mmHg 63%
    03:00 +5°C° 0 mm 2 mps 674 mmHg 64%
    04:00 +4°C° 0 mm 2 mps 674 mmHg 63%
    05:00 +4°C° 0 mm 2 mps 674 mmHg 62%
    06:00 +4°C° 0 mm 2 mps 673 mmHg 60%
    07:00 +6°C° 0 mm 2 mps 674 mmHg 54%
    08:00 +9°C° 0 mm 1 mps 675 mmHg 48%
    09:00 +10°C° 0 mm 1 mps 675 mmHg 41%
    10:00 +12°C° 0 mm 2 mps 676 mmHg 38%
    11:00 +13°C° 0 mm 2 mps 676 mmHg 34%
    12:00 +13°C° 0 mm 3 mps 676 mmHg 31%
    13:00 +13°C° 0 mm 3 mps 676 mmHg 35%
    14:00 +13°C° 0 mm 4 mps 676 mmHg 39%
    15:00 +13°C° 0 mm 4 mps 675 mmHg 43%
    16:00 +11°C° 0 mm 3 mps 675 mmHg 53%
    17:00 +9°C° 0 mm 3 mps 675 mmHg 63%
    18:00 +7°C° 0 mm 2 mps 675 mmHg 73%
    19:00 +7°C° 0 mm 2 mps 675 mmHg 77%
    20:00 +6°C° 0 mm 2 mps 675 mmHg 81%
    21:00 +6°C° 0 mm 1 mps 676 mmHg 85%
    22:00 +6°C° 0 mm 1 mps 676 mmHg 87%
    23:00 +5°C° 0 mm 1 mps 676 mmHg 88%

    Tomorrow, 18 January, Thursday

    Time Temperature Precipitation Wind Pressure Humidity
    00:00 +5°C° 0 mm 1 mps 676 mmHg 89%
    01:00 +5°C° 0 mm 1 mps 676 mmHg 89%
    02:00 +4°C° 0 mm 1 mps 675 mmHg 89%
    03:00 +4°C° 0 mm 1 mps 675 mmHg 89%
    04:00 +4°C° 0 mm 1 mps 675 mmHg 89%
    05:00 +4°C° 0 mm 1 mps 675 mmHg 89%
    06:00 +4°C° 0 mm 1 mps 675 mmHg 89%
    07:00 +4°C° 0 mm 2 mps 676 mmHg 82%
    08:00 +6°C° 0 mm 2 mps 676 mmHg 75%
    09:00 +7°C° 0 mm 2 mps 677 mmHg 68%
    10:00 +9°C° 0 mm 3 mps 677 mmHg 60%
    11:00 +10°C° 0 mm 3 mps 677 mmHg 53%
    12:00 +12°C° 0 mm 4 mps 677 mmHg 45%
    13:00 +12°C° 0 mm 4 mps 677 mmHg 46%
    14:00 +12°C° 0 mm 4 mps 676 mmHg 47%
    15:00 +12°C° 0 mm 4 mps 676 mmHg 49%
    16:00 +10°C° 0 mm 4 mps 675 mmHg 55%
    17:00 +9°C° 0 mm 3 mps 675 mmHg 62%
    18:00 +7°C° 0 mm 3 mps 674 mmHg 69%
    19:00 +7°C° 0 mm 3 mps 674 mmHg 73%
    20:00 +5°C° 0 mm 3 mps 674 mmHg 76%
    21:00 +5°C° 0 mm 3 mps 674 mmHg 79%
    22:00 +4°C° 0 mm 3 mps 674 mmHg 81%
    23:00 +4°C° 0 mm 3 mps 673 mmHg 84%

    Day after tomorrow, 19 January, Friday

    Time Temperature Precipitation Wind Pressure Humidity
    00:00 +4°C° 0 mm 3 mps 673 mmHg 86%
    01:00 +4°C° 0 mm 2 mps 673 mmHg 87%
    02:00 +4°C° 0 mm 2 mps 672 mmHg 87%
    03:00 +4°C° 0 mm 2 mps 672 mmHg 88%
    04:00 +4°C° 0 mm 2 mps 672 mmHg 87%
    05:00 +3°C° 0 mm 2 mps 671 mmHg 87%
    06:00 +3°C° 0 mm 2 mps 671 mmHg 86%
    07:00 +5°C° 0 mm 2 mps 671 mmHg 79%
    08:00 +6°C° 0 mm 2 mps 672 mmHg 72%
    09:00 +9°C° 0 mm 1 mps 672 mmHg 64%
    10:00 +10°C° 0 mm 1 mps 672 mmHg 57%
    11:00 +11°C° 0 mm 1 mps 672 mmHg 50%
    12:00 +13°C° 0 mm 1 mps 672 mmHg 42%
    13:00 +13°C° 0 mm 2 mps 671 mmHg 44%
    14:00 +13°C° 0 mm 2 mps 671 mmHg 46%
    15:00 +13°C° 0 mm 2 mps 671 mmHg 47%
    16:00 +11°C° 0 mm 3 mps 671 mmHg 56%
    17:00 +9°C° 0 mm 3 mps 671 mmHg 65%
    18:00 +8°C° 0 mm 3 mps 671 mmHg 75%
    19:00 +7°C° 0 mm 3 mps 671 mmHg 79%
    20:00 +7°C° 0 mm 3 mps 671 mmHg 84%
    21:00 +7°C° 0 mm 2 mps 671 mmHg 88%
    22:00 +6°C° 0 mm 2 mps 671 mmHg 90%
    23:00 +6°C° 0 mm 2 mps 671 mmHg 92%

    20 January, Saturday

    Time Temperature Precipitation Wind Pressure Humidity
    00:00 +5°C° 0 mm 2 mps 671 mmHg 94%
    01:00 +4°C° 0 mm 3 mps 672 mmHg 93%
    02:00 +4°C° 0 mm 3 mps 672 mmHg 91%
    03:00 +5°C° 0 mm 3 mps 672 mmHg 90%
    04:00 +4°C° 0 mm 3 mps 672 mmHg 90%
    05:00 +4°C° 0 mm 3 mps 672 mmHg 90%
    06:00 +4°C° 0 mm 3 mps 672 mmHg 90%
    07:00 +4°C° 0.1 mm 3 mps 672 mmHg 88%
    08:00 +5°C° 0.1 mm 3 mps 673 mmHg 87%
    09:00 +5°C° 0.1 mm 3 mps 674 mmHg 85%
    10:00 +5°C° 0.1 mm 3 mps 674 mmHg 83%
    11:00 +7°C° 0.1 mm 3 mps 674 mmHg 80%
    12:00 +7°C° 0.1 mm 3 mps 674 mmHg 78%
    13:00 +7°C° 0.1 mm 3 mps 674 mmHg 76%
    14:00 +8°C° 0.1 mm 3 mps 674 mmHg 74%
    15:00 +8°C° 0.1 mm 3 mps 673 mmHg 72%
    16:00 +7°C° 0 mm 2 mps 674 mmHg 76%
    17:00 +7°C° 0 mm 2 mps 674 mmHg 80%
    18:00 +6°C° 0 mm 2 mps 674 mmHg 83%
    19:00 +6°C° 0 mm 2 mps 674 mmHg 85%
    20:00 +5°C° 0 mm 2 mps 674 mmHg 87%
    21:00 +5°C° 0 mm 2 mps 674 mmHg 89%
    22:00 +4°C° 0 mm 2 mps 674 mmHg 90%
    23:00 +4°C° 0 mm 2 mps 674 mmHg 90%

    21 January, Sunday

    Time Temperature Precipitation Wind Pressure Humidity
    00:00 +4°C° 0 mm 2 mps 674 mmHg 91%
    01:00 +4°C° 0 mm 2 mps 674 mmHg 88%
    02:00 +3°C° 0 mm 2 mps 674 mmHg 86%
    03:00 +3°C° 0 mm 2 mps 673 mmHg 83%
    04:00 +3°C° 0 mm 2 mps 673 mmHg 79%
    05:00 +4°C° 0 mm 2 mps 674 mmHg 74%
    06:00 +4°C° 0 mm 2 mps 674 mmHg 70%
    07:00 +4°C° 0 mm 3 mps 674 mmHg 66%
    08:00 +5°C° 0 mm 3 mps 675 mmHg 63%
    09:00 +8°C° 0 mm 3 mps 676 mmHg 59%
    10:00 +9°C° 0 mm 3 mps 676 mmHg 60%
    11:00 +10°C° 0 mm 4 mps 676 mmHg 61%
    12:00 +10°C° 0 mm 5 mps 677 mmHg 61%
    13:00 +11°C° 0 mm 4 mps 677 mmHg 65%
    14:00 +10°C° 0 mm 4 mps 677 mmHg 68%
    15:00 +10°C° 0 mm 4 mps 676 mmHg 72%
    16:00 +8°C° 0.1 mm 4 mps 677 mmHg 78%
    17:00 +8°C° 0.1 mm 3 mps 677 mmHg 83%
    18:00 +8°C° 0.1 mm 2 mps 677 mmHg 89%
    19:00 +7°C° 0.1 mm 2 mps 678 mmHg 90%
    20:00 +7°C° 0.1 mm 2 mps 678 mmHg 91%
    21:00 +7°C° 0.1 mm 2 mps 678 mmHg 92%
    22:00 +7°C° 0 mm 2 mps 678 mmHg 93%
    23:00 +6°C° 0 mm 2 mps 678 mmHg 93%

    22 January, Monday

    Time Temperature Precipitation Wind Pressure Humidity
    00:00 +7°C° 0 mm 1 mps 678 mmHg 94%
    01:00 +7°C° 0 mm 1 mps 678 mmHg 94%
    02:00 +7°C° 0 mm 1 mps 678 mmHg 93%
    03:00 +6°C° 0 mm 1 mps 678 mmHg 93%
    04:00 +6°C° 0 mm 1 mps 678 mmHg 93%
    05:00 +6°C° 0 mm 1 mps 678 mmHg 92%
    06:00 +5°C° 0 mm 1 mps 678 mmHg 92%
    07:00 +7°C° 0 mm 1 mps 678 mmHg 85%
    08:00 +8°C° 0 mm 1 mps 679 mmHg 79%
    09:00 +10°C° 0 mm 1 mps 680 mmHg 72%
    10:00 +11°C° 0 mm 1 mps 680 mmHg 66%
    11:00 +12°C° 0 mm 2 mps 680 mmHg 59%
    12:00 +14°C° 0 mm 2 mps 680 mmHg 53%
    13:00 +14°C° 0 mm 2 mps 679 mmHg 52%
    14:00 +14°C° 0 mm 2 mps 679 mmHg 51%
    15:00 +14°C° 0 mm 2 mps 679 mmHg 50%
    16:00 +13°C° 0 mm 2 mps 679 mmHg 57%
    17:00 +11°C° 0 mm 1 mps 678 mmHg 65%
    18:00 +10°C° 0 mm 1 mps 678 mmHg 72%
    19:00 +9°C° 0 mm 1 mps 678 mmHg 74%
    20:00 +9°C° 0 mm 1 mps 678 mmHg 76%
    21:00 +8°C° 0 mm 1 mps 678 mmHg 79%
    22:00 +8°C° 0 mm 1 mps 678 mmHg 80%
    23:00 +8°C° 0 mm 1 mps 678 mmHg 81%
    Show more